User: anonymous   Login
Location: B
(0.0000°N, 0.0000°E)
Time: 09:06:54
(UTC+02:00)
Language:

Cosmos 1025 Rocket - Orbit

View from above orbital plane
View from above orbital plane
View from above satellite
View from above satellite

Ground track
Ground track

The orbit data is extracted from the following two-line orbital elements,

1 10974U 78067B   17174.95857156 +.00000075 +00000-0 +56276-5 0  9998
2 10974 082.4814 162.7921 0016471 325.5136 034.5011 14.87234048087451
Epoch (UTC): 23 June 2017 23:00:20
Eccentricity: 0.0016471
inclination: 82.4814°
perigee height: 595 km
apogee height: 618 km
right ascension of ascending node: 162.7921°
argument of perigee: 325.5136°
revolutions per day: 14.87234048
mean anomaly at epoch: 34.5011°
orbit number at epoch: 8745

The dashed part of the orbit path shows where the satellite is in the earth's shadow,  

DLR